[[{"header":{"parameterUnit":"m.s-1","parameterCategory":1,"la1":30.2991,"la2":30.254,"lo1":-89.0895,"lo2":-89.0444,"dy":0.0017,"dx":0.0017,"nx":28,"ny":28,"refTime":"2023-10-23T09:00:00:Z","depth":0,"parameterNumber":2,"parameterNumberName":"U-component_of_WINDS"},"data":[0,0,0,0,0,0,0,0,0,0,0,0,0,0,0,0,0,0,0,0,0,0,0,0,0,0,0,0,0,0,0,0,0,0,0,0,0,0,0,0,0,0,0,0,0,0,0,0,0,0,0,0,0,0,0,0,0,0,-6.4697,-6.4698,0,-6.4783,-6.4784,-6.4785,-6.4691,-6.4687,-6.4684,-6.468,-6.4765,-6.477,-6.4775,0,0,0,0,0,0,0,0,0,0,0,0,0,-6.445,-6.4455,-6.4697,-6.4698,-6.4699,-6.4783,-6.4784,-6.4785,-6.4691,-6.4687,-6.4683,-6.4679,-6.4763,-6.4769,-6.4776,0,0,0,0,0,0,0,0,0,0,0,0,0,-6.4548,-6.4456,-6.4697,-6.4663,-6.466,-6.4782,-6.4784,-6.4785,-6.4692,-6.4687,-6.4681,-6.4676,-6.4761,-6.4769,-6.4777,-6.4936,0,0,-6.4802,-6.4806,0,0,0,0,0,0,0,0,-6.4543,-6.4557,-6.4667,-6.4665,-6.4663,-6.4721,-6.4727,-6.4836,-6.4694,-6.468,-6.468,-6.4674,-6.4754,-6.4763,-6.479,-6.494,-6.4943,-6.4803,-6.4808,-6.4812,-6.4814,0,0,0,0,0,0,0,-6.4536,-6.4553,-6.4731,-6.4668,-6.4666,-6.4642,-6.465,-6.4747,-6.4746,-6.4681,-6.4674,-6.4686,-6.4752,-6.4783,-6.4792,-6.4945,-6.4803,-6.481,-6.4816,-6.4819,-6.5228,-6.5233,0,0,0,0,0,0,-6.4534,-6.4548,-6.4728,-6.4733,-6.4589,-6.4651,-6.466,-6.4707,-6.4745,-6.4745,-6.469,-6.4681,-6.4771,-6.4782,-6.4794,-6.4981,-6.4812,-6.482,-6.4824,-6.5222,-6.5229,-6.5235,0,0,0,0,0,0,-6.4529,-6.4551,-6.4725,-6.4639,-6.4659,-6.4661,-6.4715,-6.4712,-6.4742,-6.4752,-6.4751,-6.4722,-6.4767,-6.4782,-6.4901,-6.4982,-6.4823,-6.4831,-6.5215,-6.5224,-6.5232,-6.5356,0,0,0,0,0,0,-6.4522,-6.4549,-6.461,-6.4641,-6.4664,-6.4831,-6.472,-6.4718,-6.4757,-6.4746,-6.4781,-6.4782,-6.4764,-6.4889,-6.491,-6.4991,-6.4838,-6.5208,-6.5219,-6.5229,-6.5345,-6.5368,-6.5388,0,0,0,0,0,-6.4513,-6.4641,-6.4614,-6.4636,-6.474,-6.4836,-6.4849,-6.4827,-6.4764,-6.4825,-6.4831,-6.4781,-6.4972,-6.4902,-6.4924,-6.5009,-6.5202,-6.5216,-6.5229,-6.5335,-6.5364,-6.5388,0,0,0,0,0,0,-6.4617,-6.4644,-6.4614,-6.4756,-6.4795,-6.482,-6.4895,-6.4858,-6.4914,-6.4901,-6.4871,-6.488,-6.5005,-6.502,-6.4942,-6.5165,-6.5076,-6.5095,-6.515,-6.5177,-6.5198,-6.519,-6.4844,0,0,0,0,0,-6.4657,-6.4733,-6.4753,-6.4876,-6.4897,-6.4894,-6.4934,-6.4914,-6.4952,-6.4968,-6.4983,-6.5021,-6.5089,-6.5135,-6.5198,-6.5349,-6.5353,-6.5418,-6.544,-6.5458,-6.5472,-6.5551,-6.5579,-6.5279,-6.5279,-6.5278,0,0,-6.4739,-6.4763,-6.4813,-6.4897,-6.4925,-6.5003,-6.4907,-6.4994,-6.5052,-6.4981,-6.5093,-6.5107,-6.5147,-6.5282,-6.5342,-6.5298,-6.5557,-6.5474,-6.5488,-6.5493,-6.5567,-6.5596,-6.5621,-6.5288,-6.5286,-6.5285,0,0,-6.4927,-6.4955,-6.5059,-6.509,-6.5134,-6.5131,-6.5157,-6.5189,-6.5195,-6.5308,-6.5256,-6.5324,-6.5443,-6.5474,-6.5505,-6.5709,-6.5664,-6.5731,-6.5842,-6.592,-6.5943,-6.5964,-6.6034,-6.606,-6.5747,-6.5747,-6.5747,0,-6.5022,-6.5139,-6.5117,-6.5209,-6.5246,-6.5189,-6.5294,-6.5324,-6.5386,-6.5413,-6.5364,-6.5512,-6.5536,-6.5676,-6.5726,-6.5755,-6.5781,-6.5724,-6.5942,-6.5963,-6.5982,-6.6048,-6.6074,-6.5755,-6.5754,-6.5753,-6.5752,0,-6.5253,-6.5336,-6.5415,-6.5478,-6.5525,-6.5623,-6.5615,-6.5666,-6.5644,-6.5646,-6.5762,-6.5789,-6.5857,-6.589,-6.5868,-6.6027,-6.5998,-6.5947,-6.5856,-6.6018,-6.6079,-6.6105,-6.5766,-6.5763,-6.5761,-6.5759,0,0,-6.5504,-6.5556,-6.5585,-6.5613,-6.5659,-6.5721,-6.5817,-6.5885,-6.5927,-6.5974,-6.6051,-6.6155,-6.6108,-6.6144,-6.6126,-6.6194,-6.6351,-6.6134,-6.6134,-6.617,-6.6526,-6.6561,-6.6591,-6.6324,-6.6329,-6.6333,-6.6521,0,-6.5691,-6.5856,-6.5841,-6.5998,-6.6072,-6.6021,-6.6104,-6.6141,-6.6147,-6.621,-6.6217,-6.6289,-6.6223,-6.6244,-6.631,-6.6318,-6.6421,-6.6305,-6.6393,-6.6396,-6.6379,-6.6624,-6.6661,-6.6838,-6.6545,-6.6549,-6.6552,0,-6.5929,-6.5985,-6.6149,-6.6184,-6.6215,-6.629,-6.6351,-6.6414,-6.6454,-6.6454,-6.6496,-6.6467,-6.6562,-6.6474,-6.6604,-6.6525,-6.6561,-6.6571,-6.6577,-6.658,-6.6481,-6.663,-6.6894,-6.6919,-6.6591,-6.6588,-6.6585,0,-6.6091,-6.6208,-6.6321,-6.6347,-6.6391,-6.6445,-6.6466,-6.6502,-6.6544,-6.6598,-6.6624,-6.6689,-6.6723,-6.6773,-6.6761,-6.6699,-6.6894,-6.6805,-6.6894,-6.6894,-6.6932,-6.6929,-6.7202,-6.6964,-6.6963,-6.6963,-6.6962,0,-6.6298,-6.64,-6.6394,-6.6463,-6.6576,-6.6559,-6.667,-6.6685,-6.6718,-6.6788,-6.6749,-6.6815,-6.6798,-6.6865,-6.6857,-6.6964,-6.6981,-6.6982,-6.6978,-6.6983,-6.6982,-6.7002,-6.6988,-6.697,-6.6968,-6.6967,-6.6966,0,-6.6495,-6.6496,-6.6616,-6.665,-6.6661,-6.6742,-6.677,-6.6835,-6.684,-6.6929,-6.6949,-6.6956,-6.7032,-6.7027,-6.7113,-6.7108,-6.7239,-6.7223,-6.7225,-6.722,-6.7307,-6.7298,-6.7598,-6.7636,-6.7378,-6.738,-6.7382,0,-6.6625,-6.6702,-6.6745,-6.679,-6.6815,-6.6888,-6.6931,-6.6918,-6.6964,-6.7018,-6.7076,-6.7149,-6.7206,-6.733,-6.7342,-6.7407,-6.7389,-6.7491,-6.7398,-6.7401,-6.7386,-6.738,-6.7387,-6.7507,-6.751,-6.7512,-6.7514,0,-6.6853,-6.6851,-6.6915,-6.698,-6.7033,-6.7084,-6.713,-6.7169,-6.7161,-6.7215,-6.7293,-6.7337,-6.7426,-6.7498,-6.7561,-6.7581,-6.7546,-6.7544,-6.7567,-6.7571,-6.7567,-6.7567,-6.727,-6.7536,-6.7533,-6.7532,-6.7531,-6.753,-6.7018,-6.7084,-6.7125,-6.7198,-6.7232,-6.7276,-6.7339,-6.7353,-6.7418,-6.7489,-6.7478,-6.7565,-6.7605,-6.7686,-6.7713,-6.778,-6.7744,-6.7778,-6.7786,-6.7794,-6.7802,-6.7561,-6.7792,-6.7792,-6.7791,-6.7791,-6.779,0,-6.7241,-6.7266,-6.7334,-6.74,-6.7458,-6.7423,-6.7473,-6.7523,-6.76,-6.7641,-6.7699,-6.7789,-6.786,-6.7879,-6.7946,-6.7996,-6.7982,-6.8014,-6.8008,-6.8013,-6.7833,-6.7804,-6.8025,-6.8025,-6.8025,-6.8025,-6.8025,-6.8025,-6.7364,-6.7473,-6.7476,-6.7602,-6.7625,-6.7711,-6.7742,-6.7783,-6.7815,-6.7918,-6.7977,-6.799,-6.8022,-6.8092,-6.8155,-6.8159,-6.8184,-6.8222,-6.8219,-6.8049,-6.8026,-6.8003,-6.7975,-6.8229,-6.8229,-6.8393,-6.8394,-6.8395]},{"header":{"parameterUnit":"m.s-1","parameterCategory":1,"la1":30.2991,"la2":30.254,"lo1":-89.0895,"lo2":-89.0444,"dy":0.0017,"dx":0.0017,"nx":28,"ny":28,"refTime":"2023-10-23T09:00:00:Z","depth":0,"parameterNumber":3,"parameterNumberName":"V-component_of_WINDS"},"data":[0,0,0,0,0,0,0,0,0,0,0,0,0,0,0,0,0,0,0,0,0,0,0,0,0,0,0,0,0,0,0,0,0,0,0,0,0,0,0,0,0,0,0,0,0,0,0,0,0,0,0,0,0,0,0,0,0,0,3.1471,3.1472,0,3.1526,3.1527,3.1527,3.1483,3.1481,3.1479,3.1478,3.1531,3.1534,3.1537,0,0,0,0,0,0,0,0,0,0,0,0,0,3.1328,3.1331,3.1471,3.1472,3.1473,3.1526,3.1527,3.1527,3.1483,3.1481,3.1479,3.1477,3.153,3.1534,3.1537,0,0,0,0,0,0,0,0,0,0,0,0,0,3.1387,3.1331,3.1471,3.1457,3.1456,3.1526,3.1527,3.1528,3.1484,3.1481,3.1478,3.1476,3.1529,3.1533,3.1538,3.1623,0,0,3.1552,3.1554,0,0,0,0,0,0,0,0,3.1384,3.1392,3.1459,3.1458,3.1458,3.1495,3.1496,3.156,3.1485,3.1473,3.1478,3.1474,3.1521,3.1526,3.1543,3.1626,3.1628,3.1553,3.1556,3.1558,3.1559,0,0,0,0,0,0,0,3.138,3.139,3.1493,3.146,3.1459,3.1448,3.1453,3.1508,3.1512,3.1474,3.1471,3.1478,3.152,3.1538,3.1543,3.1629,3.1553,3.1557,3.156,3.1562,3.1787,3.179,0,0,0,0,0,0,3.1377,3.1386,3.1491,3.1494,3.1413,3.1453,3.1459,3.1486,3.1511,3.1513,3.1481,3.1476,3.1531,3.1538,3.1545,3.1648,3.1558,3.1562,3.1565,3.1783,3.1787,3.1791,0,0,0,0,0,0,3.1374,3.1387,3.1489,3.144,3.1452,3.1458,3.1489,3.1488,3.1506,3.1516,3.1517,3.1498,3.1529,3.1539,3.1605,3.1649,3.1564,3.1569,3.178,3.1785,3.1789,3.1852,0,0,0,0,0,0,3.137,3.1386,3.1418,3.1441,3.1455,3.1548,3.1492,3.1491,3.1515,3.1509,3.1533,3.1534,3.1528,3.1598,3.1609,3.1654,3.1572,3.1776,3.1782,3.1787,3.1846,3.1859,3.1869,0,0,0,0,0,3.1365,3.1433,3.142,3.1433,3.1495,3.155,3.1558,3.155,3.1518,3.1551,3.1558,3.1533,3.1643,3.1605,3.1618,3.1664,3.1773,3.178,3.1787,3.1841,3.1856,3.1869,0,0,0,0,0,0,3.1413,3.1435,3.1421,3.1499,3.1523,3.1543,3.1583,3.1566,3.16,3.1593,3.1581,3.1587,3.1657,3.1667,3.1625,3.1749,3.1703,3.1712,3.1739,3.1754,3.1765,3.176,3.1576,0,0,0,0,0,3.1433,3.1477,3.1493,3.156,3.1573,3.1577,3.16,3.1593,3.1617,3.1627,3.1638,3.1663,3.1703,3.1729,3.1766,3.1848,3.1853,3.1887,3.1898,3.1907,3.1916,3.1961,3.1977,3.1814,3.1814,3.1814,0,0,3.1474,3.1492,3.1519,3.157,3.1588,3.1633,3.1585,3.1634,3.1668,3.1634,3.1697,3.1708,3.1734,3.1809,3.1843,3.182,3.1962,3.1916,3.1924,3.1927,3.197,3.1986,3.1999,3.1819,3.1818,3.1817,0,0,3.1571,3.1589,3.1647,3.1667,3.1696,3.1698,3.1713,3.1736,3.1742,3.1806,3.1782,3.1822,3.189,3.1911,3.193,3.2039,3.2018,3.2052,3.2111,3.2156,3.2169,3.218,3.2219,3.2234,3.206,3.2061,3.2061,0,3.1618,3.1685,3.1678,3.1731,3.1754,3.1728,3.1787,3.1806,3.1845,3.1862,3.1837,3.1924,3.194,3.202,3.2047,3.2064,3.208,3.2048,3.2167,3.2179,3.2189,3.2227,3.2241,3.2064,3.2064,3.2064,3.2063,0,3.1742,3.1789,3.1833,3.1873,3.1902,3.1957,3.1959,3.1988,3.198,3.1985,3.2052,3.207,3.2112,3.2131,3.2121,3.2211,3.2196,3.2169,3.2122,3.2209,3.2244,3.2258,3.207,3.2069,3.2068,3.2067,0,0,3.1867,3.1907,3.1923,3.1942,3.1974,3.201,3.2065,3.2107,3.2133,3.2162,3.2208,3.2268,3.2245,3.2267,3.226,3.23,3.2387,3.2269,3.2269,3.229,3.2487,3.2506,3.2523,3.2374,3.2376,3.2379,3.2485,0,3.1966,3.2063,3.206,3.2149,3.2194,3.2171,3.2219,3.2244,3.2252,3.229,3.2298,3.2342,3.2307,3.2321,3.2359,3.2368,3.2426,3.236,3.2416,3.2418,3.2409,3.2541,3.2561,3.266,3.2498,3.2501,3.2502,0,3.2094,3.2129,3.2224,3.2252,3.227,3.2313,3.2353,3.2391,3.2419,3.2422,3.2449,3.2436,3.2492,3.2446,3.2523,3.2479,3.2502,3.251,3.2514,3.2518,3.2465,3.2548,3.2692,3.2707,3.2524,3.2522,3.2521,0,3.2176,3.2248,3.2314,3.2331,3.2365,3.2396,3.2412,3.2438,3.2464,3.2499,3.2516,3.2557,3.2579,3.2611,3.261,3.2576,3.2689,3.2642,3.2693,3.2693,3.2716,3.2714,3.2865,3.2732,3.2732,3.2732,3.2731,0,3.2286,3.2345,3.2352,3.2393,3.2459,3.2456,3.2521,3.2533,3.2557,3.26,3.2583,3.2623,3.2621,3.2662,3.2662,3.2727,3.2737,3.2741,3.274,3.2742,3.2741,3.2755,3.2748,3.2736,3.2735,3.2734,3.2733,0,3.2389,3.2396,3.2467,3.2495,3.2503,3.255,3.2574,3.2613,3.262,3.2675,3.2687,3.2699,3.2747,3.275,3.2805,3.2805,3.2884,3.2876,3.2874,3.2873,3.2924,3.2919,3.3088,3.311,3.2964,3.2965,3.2966,0,3.2458,3.2503,3.2537,3.2565,3.2583,3.2629,3.2656,3.2656,3.2685,3.2723,3.2758,3.2805,3.2842,3.292,3.2932,3.2975,3.2967,3.3024,3.2973,3.2975,3.2968,3.2966,3.297,3.3033,3.3035,3.3036,3.3037,0,3.258,3.2583,3.2624,3.2667,3.2702,3.2735,3.2767,3.2791,3.2794,3.2829,3.2878,3.2908,3.2966,3.3012,3.3055,3.307,3.3055,3.3054,3.3068,3.3069,3.3067,3.3069,3.2901,3.3049,3.3048,3.3047,3.3046,3.3046,3.2668,3.2708,3.2739,3.2786,3.281,3.2841,3.288,3.2893,3.2935,3.2983,3.298,3.3036,3.3065,3.3121,3.314,3.3184,3.3165,3.3185,3.319,3.3195,3.32,3.3061,3.3191,3.3191,3.3191,3.3191,3.319,0,3.279,3.2809,3.2853,3.2899,3.2937,3.2921,3.2956,3.2988,3.3038,3.3067,3.3105,3.3164,3.321,3.3228,3.3273,3.3305,3.3299,3.3317,3.3314,3.3318,3.3215,3.3198,3.3321,3.3321,3.3321,3.3321,3.3321,3.3321,3.2857,3.2924,3.2931,3.3011,3.303,3.3085,3.3106,3.3135,3.3159,3.3225,3.3264,3.3277,3.3302,3.335,3.3392,3.3396,3.3413,3.3434,3.3435,3.3338,3.3325,3.3312,3.3296,3.3438,3.3438,3.3535,3.3536,3.3536]}]]